This demonstration page uses our WeatherBlox Daily Observations layout. Learn more.

Left ArrowRight Arrow

Hourly Observations for March 7, 2017

Temp ( °F °C ) Dew Point ( °F °C ) Humidity (%) Winds ( mph kmh ) Pressure ( in mb ) Visibility ( mi km ) Precip ( " mm )
12:24 am 00:24 Cloudy with Nearby Thunderstorms 46 8 39 4 76 76 NNW 9 15 29.91 1013 8 13 0.00 0.00
12:31 am 00:31 Cloudy with Thunderstorms 46 7.8 41 5 83 83 NNW 7 11 29.91 1013 7 11 0.05 1.27
12:49 am 00:49 Cloudy with Nearby Thunderstorms 46 8 41 5 82 82 Calm 29.91 1013 8 13 0.07 1.78
12:52 am 00:52 Cloudy with Nearby Thunderstorms 46 7.8 42 5.6 86 86 NE 6 9 29.83 1010 9 14 0.07 1.78
12:59 am 00:59 Cloudy with Thunderstorms 46 7.8 41 5 83 83 Calm 29.91 1013 10 16 0.00 0.03
1:14 am 01:14 Cloudy with Nearby Thunderstorms 46 8 43 6 87 87 SW 7 11 29.94 1014 10 16 0.00 0.00
1:30 am 01:30 Cloudy with Light Rain 46 8 43 6 87 87 SE 5 7 29.94 1014 10 16 0.00 0.00
1:52 am 01:52 Cloudy 46 7.8 43 6.1 89 89 SW 5 7 29.93 1014 10 16 0.00 0.03
2:52 am 02:52 Mostly Cloudy 47 8.3 37 2.8 69 69 W 7 11 29.93 1014 10 16 0.00 0.00
3:52 am 03:52 Cloudy 46 7.8 37 2.8 71 71 W 8 13 29.95 1014 10 16 0.00 0.00
4:52 am 04:52 Clear 43 6.1 28 -2.2 56 56 WNW 10 17 29.99 1016 10 16 0.00 0.00
5:52 am 05:52 Clear 41 5 27 -2.8 57 57 WNW 7 11 30.03 1017 10 16 0.00 0.00
6:52 am 06:52 Sunny 39 3.9 27 -2.8 62 62 W 9 15 30.09 1019 10 16 0.00 0.00
7:52 am 07:52 Sunny 42 5.6 27 -2.8 55 55 WNW 7 11 30.11 1020 10 16 0.00 0.00
8:52 am 08:52 Sunny 46 7.8 26 -3.3 46 46 WNW 9 15 30.15 1021 10 16 0.00 0.00
9:52 am 09:52 Sunny 49 9.4 23 -5 36 36 W 12 19 30.17 1022 10 16 0.00 0.00
10:52 am 10:52 Sunny 51 10.6 25 -3.9 36 36 W 13 20 30.19 1022 10 16 0.00 0.00
11:52 am 11:52 Sunny 52 11.1 22 -5.6 31 31 WNW 13 20 30.19 1023 10 16 0.00 0.00
12:52 pm 12:52 Sunny 54 12.2 18 -7.8 24 24 WNW 22 35 30.18 1022 10 16 0.00 0.00
1:52 pm 13:52 Sunny 56 13.3 17 -8.3 22 22 W 17 28 30.16 1022 10 16 0.00 0.00
2:52 pm 14:52 Sunny 57 13.9 14 -10 18 18 WNW 23 37 30.16 1021 10 16 0.00 0.00
3:52 pm 15:52 Sunny 57 13.9 14 -10 18 18 W 17 28 30.16 1021 10 16 0.00 0.00
4:52 pm 16:52 Sunny 57 13.9 12 -11.1 17 17 W 17 28 30.17 1022 10 16 0.00 0.00
5:52 pm 17:52 Sunny 55 12.8 10 -12.2 16 16 W 10 17 30.17 1022 10 16 0.00 0.00
6:52 pm 18:52 Clear 47 8.3 15 -9.4 28 28 SW 7 11 30.18 1022 10 16 0.00 0.00
7:52 pm 19:52 Clear 43 6.1 18 -7.8 37 37 SSW 10 17 30.19 1022 10 16 0.00 0.00
8:52 pm 20:52 Clear 42 5.6 18 -7.8 38 38 SSW 9 15 30.20 1023 10 16 0.00 0.00
9:52 pm 21:52 Clear 42 5.6 16 -8.9 35 35 SSW 10 17 30.21 1023 10 16 0.00 0.00
10:52 pm 22:52 Clear 40 4.4 17 -8.3 40 40 SSW 9 15 30.22 1023 10 16 0.00 0.00
11:52 pm 23:52 Clear 42 5.6 15 -9.4 33 33 SW 7 11 30.24 1024 10 16 0.00 0.00

Powered by AerisWeather